Temperature
14 14 14 14 14 14 14 14 14 14 14 14 14 14 15 15 15 15 15 15 15 15 15 15 15 15 15 15 15 15 15 15 15 15 15 15 15 15 15 15 15 15 15
14 14 14 14 14 14 14 14 14 14 14 14 14 14 14 14 14 14 14 14 14 14 15 15 15 14 15 15 15 15 15 15 15 15 15 15 15 15 15 14 15 14 14
13 14 14 14 14 14 14 14 14 14 14 14 14 14 14 14 14 14 14 14 14 14 14 14 14 14 15 15 15 14 14 14 14 14 14 14 14 14 14 14 14 14 14
13 13 13 13 13 13 13 13 13 13 13 13 13 13 13 14 14 14 14 14 14 14 14 14 14 14 14 14 14 14 14 14 14 14 14 14 14 14 14 14 14 14 14
13 13 13 13 13 13 13 13 13 13 13 13 13 13 13 13 13 13 13 13 14 14 14 14 14 14 14 14 14 14 14 14 14 14 14 14 14 14 14 14 14 14 14
12 12 13 13 13 13 12 12 13 13 13 13 13 13 13 13 13 13 13 13 13 13 13 13 14 14 14 14 14 13 13 13 13 13 13 13 13 14 14 14 14 14 14
12 12 12 12 12 12 12 12 12 12 12 12 12 12 12 12 13 13 13 13 13 13 13 13 13 13 13 13 13 13 13 13 13 13 13 13 13 13 13 13 13 13 13
12 12 12 12 12 12 12 12 12 12 12 12 12 12 12 12 12 12 12 12 12 12 13 13 13 13 13 13 13 13 13 13 13 13 13 13 13 13 13 13 13 13 13
11 12 12 12 12 11 11 11 11 11 11 11 11 11 11 11 11 12 12 12 12 12 12 12 13 13 12 13 12 12 12 12 12 12 12 12 13 13 13 13 13 13 13
11 11 11 11 11 11 11 11 11 11 11 11 11 11 11 11 11 11 11 11 11 11 12 12 12 12 12 12 12 12 12 12 12 12 12 12 12 12 12 12 13 13 12
11 11 11 11 11 11 10 10 11 11 10 11 11 11 11 11 11 11 11 11 11 11 11 11 11 12 12 11 11 11 11 12 12 12 12 12 12 12 12 12 12 12 12
10 10 10 10 10 10 10 10 10 10 10 10 10 10 10 10 10 10 10 10 10 10 11 11 11 11 11 11 11 11 11 11 11 11 11 12 12 12 12 12 12 12 12
9 9 10 10 10 10 10 10 9 10 9 9 9 9 9 9 9 9 9 10 10 10 10 10 10 10 10 10 10 10 10 11 11 11 11 11 11 11 11 11 11 12 12
9 9 9 9 9 9 9 9 9 9 9 9 9 9 9 9 9 9 9 9 9 9 9 10 9 9 9 9 10 10 10 10 10 10 10 10 11 11 11 11 11 11 11
8 8 9 9 8 8 9 8 8 8 8 8 8 8 8 8 8 8 8 8 9 9 9 9 9 9 9 9 9 9 9 10 10 10 10 10 10 10 10 10 10 10 10
8 8 8 8 8 8 8 8 8 8 8 8 8 8 8 8 8 8 8 8 8 8 8 8 8 8 8 8 8 8 9 9 9 9 9 9 10 10 10 10 10 10 10
7 7 7 8 7 7 7 7 7 7 7 7 7 7 7 7 7 7 7 7 8 8 8 7 7 7 8 8 8 8 8 8 8 8 8 9 9 9 9 9 9 9 9
6 7 7 7 7 7 7 7 7 7 7 7 7 7 7 7 7 7 7 7 7 7 7 7 7 7 7 7 7 7 7 8 8 8 8 8 8 9 9 9 9 9 9
6 6 6 6 6 6 6 6 6 6 6 6 6 6 6 6 6 6 6 6 6 7 7 6 6 6 6 6 6 7 7 7 7 7 7 8 8 8 8 8 8 9 8
5 5 6 6 6 6 6 6 6 6 6 6 6 6 6 6 6 6 6 6 6 6 6 6 6 6 6 6 6 6 6 6 7 7 7 7 7 8 8 8 8 8 8
4 5 5 5 5 5 5 5 5 5 5 5 5 5 5 5 5 5 5 5 5 5 5 5 5 5 5 5 5 5 5 6 6 6 6 7 7 7 7 7 7 7 7
4 4 4 4 4 5 5 4 4 5 4 4 4 4 5 5 5 5 4 5 5 5 5 5 5 5 5 5 5 4 4 5 5 6 6 6 6 6 7 7 7 7 7
3 3 4 4 4 4 4 4 4 4 4 4 4 4 4 4 4 4 4 4 4 4 4 4 4 4 4 4 4 4 4 4 4 5 5 5 6 6 6 6 6 6 6
2 3 3 3 3 3 3 3 3 3 3 3 3 3 3 3 3 3 3 3 3 3 3 3 4 4 4 4 4 4 4 4 4 3 4 4 5 5 5 5 6 6 6
2 2 2 2 2 2 2 3 3 3 3 3 2 2 2 2 2 2 3 3 3 3 3 3 3 3 3 3 3 3 3 3 3 3 3 4 4 4 5 5 5 5 5
1 1 1 2 2 2 2 2 2 2 2 2 2 2 1 1 2 2 2 2 2 2 2 2 2 3 3 3 3 3 3 3 3 3 3 3 3 3 4 4 4 4 4
Wind_Speed
4 6 6 8 10 10 11 11 12 12 13 13 14 14 14 14 14 14 15 15 15 15 15 15 15 15 16 16 16 17 17 17 17 18 18 18 18 18 17 17 17 17 19
5 7 7 9 10 11 11 11 12 12 12 13 13 14 14 14 14 14 15 15 15 15 15 15 15 15 15 15 15 15 15 15 15 16 17 17 17 17 17 17 16 16 18
6 8 7 9 11 12 12 12 12 12 12 12 13 13 13 14 14 14 14 15 15 15 15 14 14 14 15 14 14 13 13 12 12 13 13 14 15 16 16 17 17 17 17
7 8 8 10 12 12 12 12 12 12 12 12 12 13 13 13 14 14 14 15 15 14 14 14 14 14 14 13 13 12 11 10 10 10 11 13 13 15 15 16 16 16 16
7 9 9 12 12 12 12 12 12 13 12 12 12 12 13 13 14 14 14 14 14 14 14 14 14 13 13 12 11 11 10 9 10 10 12 13 13 14 15 15 15 15 16
7 9 10 12 12 12 12 12 12 12 13 13 12 12 12 12 13 13 14 14 14 13 13 13 13 12 12 10 10 10 9 9 9 10 12 13 13 14 14 15 15 15 16
7 9 10 11 12 12 12 12 12 12 12 12 12 11 12 12 12 13 13 13 13 13 12 12 12 12 11 10 9 9 9 9 9 10 11 12 12 13 13 13 14 14 15
8 10 10 11 11 11 11 11 12 12 12 12 11 11 11 11 12 12 12 12 13 13 12 12 12 11 11 10 9 9 8 8 8 10 11 11 11 12 12 12 12 12 13
9 9 9 9 9 10 11 11 11 11 11 11 11 11 11 11 11 12 12 12 12 12 12 12 11 11 10 9 9 8 8 8 8 9 10 10 10 10 11 11 11 11 11
8 8 8 8 9 9 9 10 11 11 10 10 11 11 11 11 11 11 12 11 11 11 11 11 10 9 9 8 8 7 7 7 8 10 9 9 10 10 10 10 10 10 10
7 6 7 7 7 7 8 8 9 10 10 10 10 9 10 9 10 10 10 11 11 10 10 9 9 8 8 7 7 7 6 6 8 8 8 8 9 9 9 9 9 9 9
4 4 5 6 6 7 6 7 7 8 8 9 8 7 8 8 9 9 9 10 9 9 8 8 6 6 5 5 6 7 6 7 8 7 7 7 7 8 8 8 8 9 9
4 4 4 5 6 6 5 6 6 6 6 7 7 7 7 7 7 8 7 8 7 7 6 5 5 5 6 6 6 6 7 7 7 7 7 7 6 7 7 8 8 8 9
4 4 4 4 4 5 6 6 6 5 5 6 6 7 6 5 6 6 5 5 5 5 4 4 4 4 6 6 6 6 7 7 7 7 7 7 6 6 7 8 8 7 8
5 4 4 4 4 4 5 5 5 5 5 6 6 6 6 5 4 4 4 4 4 4 3 3 4 4 5 6 5 5 6 6 6 7 7 7 6 6 6 7 7 7 7
3 3 3 4 4 4 4 4 5 5 5 6 6 6 6 5 4 3 3 4 4 3 3 3 4 4 4 5 5 6 6 5 6 7 6 6 6 6 6 6 6 6 6
3 3 3 4 4 5 4 4 5 5 5 4 5 5 6 5 5 4 3 3 4 3 3 3 3 4 4 4 4 5 5 5 5 5 6 6 6 6 6 6 6 5 6
3 3 3 3 4 4 4 4 4 4 5 4 4 4 5 5 4 4 3 3 4 3 3 2 2 2 2 2 2 3 4 4 4 4 5 5 5 5 5 5 6 6 5
3 4 3 4 3 3 4 4 4 5 5 4 4 4 4 5 4 3 3 3 3 3 2 2 2 1 2 2 2 2 2 2 3 4 4 4 4 5 5 5 6 7 7
4 4 3 3 3 3 3 3 3 4 4 4 4 4 4 4 4 3 2 2 2 2 2 1 1 2 1 1 2 2 2 1 2 2 2 3 3 3 5 5 4 4 5
4 4 3 3 2 2 2 1 1 1 2 3 3 3 3 3 3 3 2 2 2 1 1 1 1 1 1 1 1 1 2 1 1 1 2 2 2 2 3 4 4 3 3
3 3 3 2 1 2 1 0 1 1 1 2 3 3 3 3 2 1 2 1 1 1 0 0 1 0 0 0 1 1 0 1 1 1 0 1 0 1 2 3 3 3 3
3 2 2 1 1 1 2 2 2 2 2 1 1 2 2 2 1 1 1 1 1 0 0 1 1 1 1 1 0 1 1 2 1 1 1 1 0 0 1 2 2 2 3
2 2 2 1 1 1 1 1 2 1 1 1 1 0 1 1 1 1 1 1 1 1 0 1 0 0 1 2 1 1 1 1 1 1 1 1 1 1 1 0 1 2 3
3 2 1 1 1 1 1 1 1 0 0 0 1 1 1 1 1 1 1 1 1 0 0 0 0 0 1 2 2 1 2 1 1 2 2 2 1 1 1 1 2 2 4
3 2 2 2 1 1 1 0 0 1 0 1 1 1 0 1 2 1 1 1 1 1 1 1 1 1 1 1 1 1 1 2 2 2 2 2 2 2 2 2 2 3 4
Wind_Direction
92 90 87 85 86 84 82 82 80 79 75 73 73 73 73 71 72 75 76 75 74 74 75 77 77 75 72 72 73 73 73 74 74 74 74 74 75 77 78 77 77 77 79
95 100 96 92 90 87 85 84 81 82 79 76 74 72 72 72 72 72 74 75 74 73 73 74 74 74 74 73 74 75 77 76 77 77 77 75 75 76 76 73 78 81 80
84 97 98 94 92 89 85 83 82 83 81 79 77 74 72 72 73 73 72 72 72 72 71 71 72 72 73 73 73 75 77 76 77 78 82 80 78 78 78 78 81 81 81
88 99 98 96 92 89 86 84 82 82 83 81 79 77 75 73 73 71 71 70 70 70 70 70 70 71 71 71 72 71 69 68 68 74 80 80 80 80 81 81 83 82 82
84 94 96 96 92 90 87 84 83 82 81 80 79 76 76 75 74 73 70 70 71 71 71 71 69 70 69 70 70 67 58 55 64 71 75 80 81 84 83 83 82 83 82
80 90 97 99 95 91 88 85 84 83 81 79 79 76 75 75 74 74 71 70 71 71 72 72 69 69 69 68 66 58 48 49 62 70 76 80 84 87 86 84 82 83 84
80 87 98 99 96 92 89 87 84 81 81 80 79 77 76 74 75 74 71 71 72 71 73 74 71 68 66 62 57 50 45 48 63 70 76 79 85 89 89 88 87 85 86
78 83 89 95 95 92 90 89 86 82 80 79 78 77 77 76 76 76 73 72 73 72 72 71 69 67 64 58 47 42 41 50 63 74 78 81 87 91 92 91 90 88 87
74 77 78 77 86 89 89 88 88 87 84 81 77 77 76 77 78 76 73 72 73 72 70 69 65 62 59 54 46 39 38 44 53 70 78 81 88 94 95 94 90 91 91
69 66 69 75 76 79 86 89 89 87 85 83 81 79 78 77 77 75 72 71 70 70 68 67 64 59 56 52 44 39 35 43 60 70 77 82 89 93 96 96 93 92 94
67 58 59 65 68 75 82 90 90 87 84 82 79 82 80 76 73 71 71 71 69 68 66 65 63 58 53 48 38 34 40 55 64 71 79 87 90 92 95 98 96 93 94
83 68 51 58 62 69 77 81 86 88 87 81 76 80 76 72 73 72 71 74 72 70 67 63 60 54 45 43 33 34 49 60 65 68 80 91 96 97 99 102 100 96 96
105 87 63 53 58 63 69 76 76 88 89 85 79 73 77 79 77 73 67 64 65 65 57 53 50 42 41 41 41 42 42 59 69 66 70 86 98 100 103 107 106 101 100
80 84 79 59 58 61 67 72 70 72 73 73 75 74 72 72 71 68 66 60 54 54 43 34 38 40 41 45 45 48 47 53 73 71 65 76 88 102 108 109 109 109 108
68 61 60 61 61 65 66 64 70 67 71 76 75 73 68 66 71 71 67 62 58 53 35 22 27 41 42 39 38 43 49 48 67 77 70 70 77 90 103 111 114 114 117
81 74 66 61 52 57 65 66 67 70 71 75 72 66 70 64 65 68 70 59 52 48 33 29 34 42 44 43 33 35 43 48 56 72 79 72 72 80 88 97 104 115 112
86 82 77 74 56 55 59 69 74 77 78 75 74 70 72 68 60 57 62 55 44 43 33 33 44 53 51 50 35 30 33 42 49 60 71 78 75 76 81 86 89 99 109
83 84 76 72 60 53 54 61 71 72 71 70 74 74 71 70 66 55 54 52 42 38 39 30 37 52 48 48 36 27 31 37 43 60 70 70 74 80 79 81 82 78 88
90 88 80 71 67 56 55 64 73 78 70 63 62 61 60 61 62 57 58 53 47 49 48 33 29 55 59 50 43 29 23 27 27 53 66 75 73 82 91 92 88 76 68
94 89 84 74 57 58 61 66 66 71 69 65 61 58 56 52 50 44 57 58 49 52 39 41 59 47 67 73 52 28 1 13 40 49 49 78 83 86 96 98 97 90 71
96 89 85 79 63 70 87 110 105 86 67 52 50 65 68 53 48 43 34 49 30 56 46 23 76 89 50 63 62 11 336 348 57 50 32 50 63 87 104 105 104 98 92
110 106 101 99 94 77 79 113 133 110 90 62 52 48 65 54 51 44 35 43 19 27 108 101 94 75 292 39 106 126 243 303 304 291 78 72 41 90 111 126 125 121 113
96 102 106 102 102 76 63 69 82 84 73 63 48 23 45 58 43 34 31 30 20 54 176 186 159 172 205 273 334 151 177 218 272 268 249 196 150 58 138 159 150 142 150
82 79 83 75 61 53 81 109 126 139 158 180 166 77 1 67 57 18 16 24 23 21 350 244 51 203 179 213 256 282 263 210 165 261 277 245 207 188 180 153 173 177 174
93 88 88 83 69 47 41 80 138 147 329 55 109 97 30 12 64 54 22 7 10 355 319 294 259 212 209 213 222 252 274 287 252 194 242 262 276 226 203 224 202 196 185
86 81 70 70 62 33 29 67 154 193 166 111 146 154 204 353 347 6 348 336 318 317 268 238 229 211 229 242 240 238 223 219 220 210 233 247 259 254 228 222 211 200 194
Height
1524 1525 1526 1527 1529 1530 1531 1532 1533 1534 1534 1535 1536 1537 1538 1538 1539 1540 1540 1541 1542 1542 1543 1543 1544 1544 1545 1545 1545 1545 1546 1546 1546 1547 1547 1547 1548 1548 1548 1548 1548 1549 1549
1524 1525 1527 1528 1529 1530 1531 1532 1533 1534 1535 1536 1537 1538 1539 1539 1540 1541 1542 1542 1543 1544 1544 1545 1545 1546 1546 1547 1547 1547 1548 1548 1549 1549 1549 1549 1550 1550 1550 1550 1551 1551 1551
1523 1525 1527 1528 1529 1531 1532 1533 1534 1535 1536 1537 1538 1539 1540 1540 1541 1542 1543 1543 1544 1545 1545 1546 1546 1547 1548 1548 1549 1549 1550 1550 1551 1551 1551 1551 1552 1552 1552 1553 1553 1553 1553
1524 1525 1527 1528 1530 1531 1532 1533 1534 1535 1536 1538 1538 1539 1540 1541 1542 1543 1544 1544 1545 1545 1546 1547 1547 1548 1549 1549 1550 1551 1552 1552 1552 1553 1553 1553 1553 1554 1554 1554 1555 1555 1555
1524 1525 1527 1528 1530 1531 1532 1533 1535 1536 1537 1538 1539 1540 1541 1542 1543 1543 1544 1545 1546 1546 1547 1548 1548 1549 1550 1551 1551 1552 1553 1553 1554 1554 1554 1555 1555 1555 1556 1556 1556 1557 1557
1524 1526 1527 1529 1530 1531 1533 1534 1535 1536 1537 1538 1539 1540 1541 1542 1543 1544 1544 1545 1546 1547 1548 1548 1549 1550 1551 1551 1552 1553 1554 1554 1555 1555 1555 1556 1556 1557 1557 1557 1558 1558 1558
1524 1526 1527 1529 1530 1531 1533 1534 1535 1536 1537 1538 1539 1540 1541 1542 1543 1544 1545 1545 1546 1547 1548 1549 1549 1550 1551 1552 1553 1554 1554 1555 1555 1556 1556 1557 1557 1558 1558 1558 1559 1559 1559
1524 1525 1527 1529 1530 1531 1533 1534 1535 1536 1537 1538 1539 1540 1541 1542 1543 1544 1545 1545 1546 1547 1548 1549 1549 1550 1551 1552 1553 1554 1555 1555 1556 1556 1557 1557 1558 1558 1559 1559 1560 1560 1560
1524 1525 1527 1528 1530 1531 1533 1534 1535 1536 1537 1538 1539 1540 1541 1542 1542 1543 1544 1545 1546 1547 1548 1548 1549 1550 1551 1552 1553 1554 1555 1556 1556 1557 1557 1557 1558 1559 1559 1560 1560 1560 1561
1523 1525 1526 1527 1529 1530 1532 1533 1534 1535 1536 1537 1538 1539 1540 1541 1542 1543 1544 1545 1546 1546 1547 1548 1549 1550 1551 1552 1553 1554 1554 1555 1556 1556 1557 1558 1558 1559 1559 1560 1560 1561 1561
1523 1524 1525 1527 1528 1530 1531 1532 1533 1535 1536 1537 1538 1539 1540 1540 1541 1542 1543 1544 1545 1546 1547 1547 1548 1549 1550 1551 1552 1553 1554 1555 1555 1556 1557 1557 1558 1559 1559 1560 1560 1561 1561
1521 1523 1525 1526 1527 1528 1530 1531 1533 1534 1535 1536 1537 1538 1538 1539 1540 1541 1542 1543 1544 1545 1546 1547 1547 1548 1549 1550 1551 1552 1553 1554 1554 1555 1556 1557 1558 1558 1559 1559 1560 1561 1561
1520 1521 1523 1525 1526 1527 1529 1530 1532 1533 1534 1535 1536 1537 1537 1538 1539 1540 1541 1541 1542 1543 1544 1545 1546 1547 1548 1549 1550 1551 1551 1552 1553 1554 1555 1556 1557 1558 1558 1559 1559 1560 1560
1519 1520 1522 1523 1525 1526 1528 1529 1530 1532 1533 1534 1535 1535 1536 1537 1538 1539 1540 1540 1541 1542 1543 1544 1545 1546 1547 1548 1549 1549 1550 1551 1552 1552 1554 1555 1556 1557 1557 1558 1558 1559 1559
1517 1519 1520 1522 1523 1525 1526 1527 1529 1530 1531 1532 1533 1534 1535 1536 1536 1537 1538 1539 1539 1541 1541 1542 1543 1544 1545 1546 1547 1548 1549 1549 1550 1551 1552 1553 1554 1555 1556 1557 1557 1558 1558
1516 1518 1519 1520 1521 1523 1524 1526 1527 1528 1529 1530 1532 1533 1534 1534 1535 1536 1537 1537 1538 1539 1540 1541 1542 1542 1543 1544 1545 1546 1547 1547 1548 1549 1550 1551 1552 1553 1554 1555 1556 1556 1557
1514 1516 1517 1518 1520 1521 1522 1524 1525 1526 1527 1528 1530 1531 1532 1533 1533 1534 1535 1536 1537 1537 1538 1539 1540 1541 1542 1542 1543 1544 1545 1545 1546 1547 1548 1549 1550 1551 1552 1553 1554 1555 1555
1512 1513 1515 1516 1518 1519 1520 1521 1523 1524 1525 1526 1528 1529 1530 1531 1531 1532 1533 1534 1535 1536 1537 1537 1538 1539 1540 1540 1541 1541 1543 1544 1544 1545 1546 1547 1548 1549 1550 1551 1552 1553 1553
1510 1511 1513 1514 1516 1517 1518 1519 1520 1521 1523 1524 1526 1527 1528 1529 1529 1530 1531 1531 1532 1533 1534 1535 1536 1537 1537 1538 1538 1539 1540 1541 1542 1543 1544 1544 1545 1546 1547 1548 1550 1550 1551
1508 1509 1511 1512 1513 1514 1516 1517 1518 1519 1520 1522 1523 1524 1525 1526 1527 1527 1528 1529 1530 1531 1532 1533 1534 1535 1535 1536 1536 1537 1538 1539 1539 1541 1541 1542 1543 1544 1545 1546 1547 1548 1548
1506 1507 1508 1509 1511 1512 1513 1514 1515 1516 1517 1519 1520 1522 1522 1523 1524 1525 1525 1526 1527 1528 1529 1530 1531 1532 1533 1533 1534 1534 1535 1536 1536 1538 1538 1539 1540 1541 1542 1543 1544 1545 1546
1504 1505 1506 1507 1508 1509 1510 1512 1513 1513 1514 1516 1517 1518 1519 1520 1521 1522 1523 1523 1524 1525 1526 1527 1528 1529 1530 1531 1531 1532 1533 1534 1533 1534 1535 1536 1537 1538 1539 1540 1541 1542 1543
1502 1502 1503 1505 1506 1507 1508 1509 1510 1511 1512 1514 1514 1515 1516 1517 1518 1519 1520 1520 1521 1522 1523 1524 1525 1525 1526 1527 1529 1531 1531 1530 1530 1531 1531 1532 1533 1534 1535 1537 1537 1538 1540
1500 1501 1502 1502 1503 1504 1505 1506 1507 1507 1508 1509 1511 1512 1512 1513 1514 1515 1516 1517 1518 1518 1519 1520 1521 1522 1523 1524 1525 1527 1528 1528 1528 1527 1528 1529 1530 1531 1532 1532 1534 1535 1536
1498 1499 1500 1500 1501 1502 1502 1503 1504 1504 1505 1506 1507 1509 1509 1510 1511 1512 1513 1514 1514 1515 1516 1516 1517 1518 1519 1520 1521 1522 1524 1525 1525 1525 1524 1525 1526 1527 1528 1529 1530 1531 1533
1496 1496 1497 1497 1498 1499 1499 1500 1501 1501 1502 1503 1503 1504 1505 1506 1507 1508 1509 1510 1511 1511 1512 1513 1513 1514 1515 1516 1517 1518 1519 1520 1521 1522 1521 1521 1522 1523 1524 1525 1526 1527 1528